Weather History for KRIL - May, 2013

Change the Weather History Date:

Sunday, May 26, 2013

  Actual Average Record
Temperature  
Mean Temperature 64 °F 60 °F  
Max Temperature 83 °F 77 °F 90 °F (1936)
Min Temperature 44 °F 42 °F 28 °F (1980)
Degree Days  
Heating Degree Days 1 6  
Month to date heating degree days 215 242  
Since 1 July heating degree days 6645 6539  
Cooling Degree Days 0 0  
Month to date cooling degree days 7 0  
Year to date cooling degree days 7 0  
Growing Degree Days 14 (Base 50)    
Moisture  
Dew Point 22 °F    
Average Humidity 30    
Maximum Humidity 53    
Minimum Humidity 7    
Precipitation  
Precipitation 0.00 in 0.04 in 0.53 in (1967)
Month to date precipitation 0.86 1.26  
Year to date precipitation 3.82 5.17  
Sea Level Pressure  
Sea Level Pressure 29.80 in    
Wind  
Wind Speed 8 mph (WSW)    
Max Wind Speed 28 mph    
Max Gust Speed 39 mph    
Visibility 10 miles    
Events      
T = Trace of Precipitation, MM = Missing Value Source: NWS Daily Summary

Daily Weather History Graph

Daily Weather History Graph

Search for Another Location

Airport or City:

Trip Planner

Search our weather history database for the weather conditions in past years. The results will help you decide how hot, cold, wet, or windy it might be!

Date:

Astronomy

May. 26, 2013 Rise Set
Actual Time 5:48 AM MDT 8:28 PM MDT
Civil Twilight 5:17 AM MDT 8:59 PM MDT
Nautical Twilight 4:37 AM MDT 9:38 PM MDT
Astronomical Twilight 3:53 AM MDT 10:23 PM MDT
Moon 10:18 PM MDT (5/26) 7:20 AM MDT (5/26)
Length of Visible Light 15h 42m
Length of Day
14h 39m
Waning Gibbous, 96% of the Moon is Illuminated
May 26
Waning Gibbous
May 31
Last Quarter
Jun 8
New
Jun 16
First Quarter
Jun 23
Full

Hourly Weather History & Observations

Time (MDT) Temp. Windchill Dew Point Humidity Pressure Visibility Wind Dir Wind Speed Gust Speed Precip Events Conditions
12:53 AM 53.1 °F - 24.1 °F 32% 29.80 in 10.0 mi ESE 4.6 mph - N/A   Clear
1:53 AM 52.0 °F - 21.9 °F 31% 29.81 in 10.0 mi SE 3.5 mph - N/A   Clear
2:53 AM 46.9 °F - 30.9 °F 54% 29.82 in 10.0 mi WSW 3.5 mph - N/A   Clear
3:53 AM 46.0 °F 43.1 °F 25.0 °F 44% 29.83 in 10.0 mi SE 5.8 mph - N/A   Clear
4:53 AM 46.0 °F - 23.0 °F 40% 29.85 in 10.0 mi Calm Calm - N/A   Clear
5:53 AM 46.0 °F - 26.1 °F 46% 29.86 in 10.0 mi Calm Calm - N/A   Clear
6:53 AM 46.9 °F - 27.0 °F 46% 29.88 in 10.0 mi Calm Calm - N/A   Clear
7:53 AM 51.1 °F - 32.0 °F 48% 29.89 in 10.0 mi NNW 3.5 mph - N/A   Clear
8:53 AM 55.9 °F - 30.0 °F 37% 29.88 in 10.0 mi WNW 3.5 mph - N/A   Clear
9:53 AM 63.0 °F - 30.0 °F 29% 29.87 in 10.0 mi Variable 3.5 mph - N/A   Clear
10:53 AM 69.1 °F - 27.0 °F 21% 29.84 in 10.0 mi Variable 3.5 mph - N/A   Clear
11:53 AM 75.0 °F - 19.9 °F 13% 29.81 in 10.0 mi West 15.0 mph 24.2 mph N/A   Clear
12:53 PM 78.1 °F - 19.9 °F 11% 29.79 in 10.0 mi West 18.4 mph 24.2 mph N/A   Clear
1:53 PM 81.0 °F - 19.9 °F 10% 29.76 in 10.0 mi West 21.9 mph 29.9 mph N/A   Clear
2:53 PM 82.9 °F - 19.0 °F 9% 29.77 in 10.0 mi SW 17.3 mph 39.1 mph N/A   Clear
3:53 PM 82.0 °F - 19.9 °F 10% 29.75 in 10.0 mi WNW 13.8 mph 21.9 mph N/A   Clear
4:53 PM 82.0 °F - 17.1 °F 9% 29.73 in 10.0 mi West 16.1 mph 24.2 mph N/A   Clear
5:53 PM 82.0 °F - 12.9 °F 7% 29.72 in 10.0 mi SW 11.5 mph 21.9 mph N/A   Clear
6:53 PM 80.1 °F - 12.9 °F 8% 29.72 in 10.0 mi WSW 13.8 mph 23.0 mph N/A   Clear
7:53 PM 77.0 °F - 12.9 °F 9% 29.73 in 10.0 mi SSW 10.4 mph - N/A   Clear
8:53 PM 73.0 °F - 14.0 °F 11% 29.73 in 10.0 mi SW 13.8 mph - N/A   Clear
9:53 PM 62.1 °F - 19.9 °F 20% 29.76 in 10.0 mi ENE 6.9 mph - N/A   Clear
10:53 PM 60.1 °F - 19.9 °F 21% 29.77 in 10.0 mi Calm Calm - N/A   Clear
11:53 PM 59.0 °F - 19.0 °F 21% 29.76 in 10.0 mi Calm Calm - N/A   Clear